Weather Roundup
Issued by NWS

Home | Current Version | Previous Version | Text Only | Print | Product List | Glossary On
Versions: 1 2 3 4 5 6 7 8 9 10 11 12 13 14 15 16 17 18 19 20 21 22 23 24 25 26 27 28 29 30 31 32 33 34 35 36 37 38 39 40 41 42 43 44 45 46 47 48 49 50
473
NZUS93 KARX 230810
HRRWXR

CURRENT HOURLY OBSERVATIONS ACROSS
MUCH OF THE UPPER MISSISSIPPI VALLEY
NATIONAL WEATHER SERVICE LA CROSSE WI
300 AM CDT THU MAR 23 2017


...SOUTHEAST MINNESOTA...


CITY           SKY/WX    TMP DP  RH WIND       PRES   REMARKS
ROCHESTER      CLOUDY    34  24  67 S21G31    30.24F WCI  22
ROCHESTER/MAYO CLOUDY    36  22  57 SE14G23   30.25F WCI  27
WINONA         CLOUDY    37  19  48 SE8       30.31F WCI  31
AUSTIN         CLOUDY    36  25  64 SE8G16    30.23F WCI  29
ALBERT LEA     CLOUDY    36  21  55 S20G28    30.19F WCI  25
DODGE CENTER   CLOUDY    34  25  69 SE18G25   30.23F WCI  23
PRESTON        CLOUDY    34  22  61 S18       30.27F WCI  23
OWATONNA       LGT RAIN  36  23  60 SE14      30.22F WCI  27
FARIBAULT      FLURRIES  36  23  60 SE12      30.22F WCI  27
$$

...ELSEWHERE IN MINNESOTA...


CITY           SKY/WX    TMP DP  RH WIND       PRES   REMARKS
MINNEAPOLIS    CLOUDY    37  18  46 S12       30.23F WCI  29
INTNL FALLS    CLOUDY    30  19  63 SE14G22   30.11F WCI  19
DULUTH         FLURRIES  30  19  63 SE7       30.23F WCI  23
RED WING       CLOUDY    37  16  41 SE9       30.27S WCI  31
REDWOOD FALLS  CLOUDY    37  24  59 SE18      30.12F WCI  27
MANKATO        CLOUDY    36  23  59 SE17      30.18F WCI  26
WORTHINGTON    NOT AVBL
FAIRMONT       CLOUDY    36  24  62 S21G28    30.15F WCI  25
$$

...SOUTHWEST WISCONSIN...


CITY           SKY/WX    TMP DP  RH WIND       PRES   REMARKS
LA CROSSE      CLOUDY    38  21  50 SE12      30.32F WCI  30
PRAIRIE DU CHI CLOUDY    37  17  45 SE7       30.34S WCI  31
BOSCOBEL       CLOUDY    34  19  54 E9        30.37F WCI  27
LONE ROCK      CLOUDY    31  19  61 SE8       30.39F WCI  23
PLATTEVILLE    CLOUDY    32  22  67 SE9       30.36F WCI  24
FORT MC COY    CLOUDY    34  21  58 SE9       30.35F WCI  27
CAMP DOUGLAS   CLOUDY    31  21  67 SE10      30.35F WCI  22
MAUSTON-NEW LI CLOUDY    31  22  70 SE7       30.36F WCI  24
VIROQUA        CLOUDY    32  21  62 SE12      30.32S WCI  23
WIS DELLS      CLOUDY    29  20  71 SE7       30.38F WCI  21
$$

...ELSEWHERE IN WISCONSIN...


CITY           SKY/WX    TMP DP  RH WIND       PRES   REMARKS
MILWAUKEE      CLOUDY    30  22  72 SE5       30.44F WCI  25
MADISON        CLOUDY    27  19  72 SE8       30.40F WCI  19
GREEN BAY      CLOUDY    26  22  84 S5        30.44S WCI  20
EAU CLAIRE     CLOUDY    34  16  47 SE12      30.30S WCI  25
BLACK RVR FLS  CLOUDY    34  17  50 SE5       30.34F WCI  30
MEDFORD        CLOUDY    28  19  69 SE9       30.32F WCI  19
WAUSAU         CLOUDY    26  19  74 SE8       30.35F WCI  18
WIS RAPIDS     CLOUDY    27  20  75 SE8       30.40F WCI  19
MARSHFIELD     CLOUDY    29  19  66 SE13      30.34F WCI  19
RICE LAKE      CLOUDY    33  15  48 SE5       30.29F WCI  29
$$

...NORTHEAST IOWA...


CITY           SKY/WX    TMP DP  RH WIND       PRES   REMARKS
WATERLOO       CLOUDY    37  20  50 SE18G24   30.28F WCI  27
DUBUQUE        CLOUDY    32  20  61 SE15      30.34S WCI  22
DECORAH        CLOUDY    34  23  64 S12G18    30.29S WCI  25
MASON CITY     CLOUDY    35  23  61 SE20G25   30.23F WCI  24
CHARLES CITY   CLOUDY    36  23  60 SE18      30.27S WCI  25
OELWEIN        CLOUDY    34  23  64 SE16      30.30F WCI  23
$$

...ELSEWHERE IN IOWA...


CITY           SKY/WX    TMP DP  RH WIND       PRES   REMARKS
DES MOINES     CLOUDY    42  15  33 SE15      30.20F
IOWA CITY      CLOUDY    37  23  56 SE8       30.34S WCI  31
FORT DODGE     CLOUDY    39  18  41 SE9       30.19F WCI  33
MARSHALLTOWN   CLOUDY    37  21  52 SE16      30.24F WCI  28
CEDAR RAPIDS   CLOUDY    35  22  58 SE10      30.30S WCI  27
$$

...NORTHERN ILLINOIS...


CITY           SKY/WX    TMP DP  RH WIND       PRES   REMARKS
CHICAGO-OHARE  CLOUDY    29  22  75 SE7       30.43F WCI  22
CHICAGO-MIDWAY PTCLDY    32  19  58 SE10      30.44F WCI  24
MOLINE         CLOUDY    34  21  59 SE14      30.35F WCI  25
ROCKFORD       CLOUDY    30  20  66 E9        30.42F WCI  22
PEORIA         MOCLDY    35  21  56 SE14      30.36F WCI  26
$$

NOTE: "FAIR" INDICATES FEW OR NO CLOUDS BELOW 12,000 FEET WITH NO
SIGNIFICANT WEATHER AND/OR OBSTRUCTIONS TO VISIBILITY. WIND
SPEEDS ARE IN MILES-PER-HOUR.




USA.gov is the U.S. government's official web portal to all federal, state and local government web resources and services.